AirNav   Everest Fuels
 
 1120 users online  

1D6 Hector Municipal Airport
Hector, Minnesota, USA

GOING TO HECTOR?


FAA INFORMATION EFFECTIVE 16 JUNE 2022

Location

FAA Identifier: 1D6
Lat/Long: 44-43-51.9691N 094-42-49.6296W
44-43.866152N 094-42.827160W
44.7311025,-94.7137860
(estimated)
Elevation: 1078 ft. / 329 m (estimated)
Variation: 04E (1985)
From city: 1 mile S of HECTOR, MN
Time zone: UTC -5 (UTC -6 during Standard Time)
Zip code: 55342

Airport Operations

Airport use: Open to the public
Activation date: 03/1942
Control tower: no
ARTCC: MINNEAPOLIS CENTER
FSS: PRINCETON FLIGHT SERVICE STATION
NOTAMs facility: PNM (NOTAM-D service available)
Attendance: UNATNDD
CALL 320-848-2745.
Wind indicator: lighted
Segmented circle: no
Lights: SS-SR

Airport Communications

CTAF/UNICOM: 122.8
WX AWOS-3 at OVL (14 nm W): 119.275 (320-523-5924)
WX AWOS-3 at HCD (16 nm NE): 118.525 (320-587-3343)
WX ASOS at RWF (19 nm SW): 126.575 (507-644-3564)

Airport Services

Fuel available: 100LL
100LL:FUEL SVC CALL 320-848-2745.
Parking: tiedowns
Airframe service: NONE
Powerplant service: NONE
Bottled oxygen: NONE
Bulk oxygen: NONE

Runway Information

Runway 12/30

Dimensions: 2776 x 50 ft. / 846 x 15 m
Surface: asphalt, in good condition
Runway edge lights: non-standard
LGTS MOUNTED IN YELLOW CONES.
RUNWAY 12  RUNWAY 30
Latitude: 44-44.006167N44-43.738333N
Longitude: 094-42.973333W094-42.454500W
Elevation: 1078.0 ft.1077.0 ft.
Traffic pattern: leftleft
Runway heading: 122 magnetic, 126 true302 magnetic, 306 true
Markings: basic, in good conditionbasic, in good condition
Runway end identifier lights: nono
Touchdown point: yes, no lightsyes, no lights
Obstructions: 15 ft. road, 500 ft. from runway, 150 ft. right of centerline, 20:1 slope to clearnone
2 FT CROPS, 63 FT DIST, 85 FT L.

Runway 5/23

Dimensions: 2395 x 185 ft. / 730 x 56 m
Surface: turf, in good condition
Runway edge markings: YELLOW CONES.
Operational restrictions: NOT PLOWED WINTER MONTHS.
RUNWAY 5  RUNWAY 23
Latitude: 44-43.741333N44-43.976833N
Longitude: 094-43.180000W094-42.736833W
Elevation: 1077.1 ft.1076.9 ft.
Traffic pattern: leftleft
Runway heading: 049 magnetic, 053 true229 magnetic, 233 true
Runway end identifier lights: nono
Touchdown point: yes, no lightsyes, no lights
Obstructions: 19 ft. road, 397 ft. from runway, 20:1 slope to clear5 ft. crops, 96 ft. from runway, 85 ft. left of centerline, 19:1 slope to clear

Airport Ownership and Management from official FAA records

Ownership: Publicly-owned
Owner: CITY OF HECTOR
301 MAIN ST N
HECTOR, MN 55342
Phone 320-848-2122
Manager: GINA SCHELLENBERG
78980 STATE HIGHWAY 4
HECTOR, MN 55342-1235
Phone 320-522-1966

Airport Operational Statistics

Aircraft based on the field: 27
Single engine airplanes: 25
Multi engine airplanes: 1
Helicopters: 1
    
Aircraft operations: avg 134/week *
86% local general aviation
14% transient general aviation
* for 12-month period ending 30 September 2018

Additional Remarks

+8 FT CROPS IN PRI SFC OF ALL RWYS.
FOR CD CTC MINNEAPOLIS ARTCC AT 651-463-5588.

Instrument Procedures

There are no published instrument procedures at 1D6.

Some nearby airports with instrument procedures:

KOVL - Olivia Regional Airport (14 nm W)
KHCD - Hutchinson Municipal Airport-Butler Field (16 nm NE)
KRWF - Redwood Falls Municipal Airport (19 nm SW)
KLJF - Litchfield Municipal Airport (24 nm N)
KULM - New Ulm Municipal Airport (26 nm S)
 
Loc | Ops | Rwys | IFR | FBO | Links
Com | Nav | Svcs | Stats | Notes
Area around 1D6 (Hector Municipal Airport)
 
Road maps at: MapQuest Bing Google
 
Aerial photo
WARNING: Photo may not be current or correct
Aerial photo of 1D6 (Hector Municipal Airport)
Photo by Gary Bipes
Photo taken 16-Sep-2007

Do you have a better or more recent aerial photo of Hector Municipal Airport that you would like to share? If so, please send us your photo.

 
Sectional chart

 
Airport distance calculator
Flying to Hector Municipal Airport? Find the distance to fly.

From to 1D6

Sunrise and sunset
Times for 26-Jun-2022
 Local
(UTC-5)
 Zulu
(UTC)
Morning civil twilight04:5909:59
Sunrise05:3610:36
Sunset21:0802:08
Evening civil twilight21:4502:45

Current date and time
Zulu (UTC)  26-Jun-2022 19:36:06
Local (UTC-5)  26-Jun-2022 14:36:06
 
METAR
KOVL 
14nm W 
261915Z AUTO 31014G20KT 10SM SCT060 SCT080 22/05 A3021 RMK AO2
KHCD 
17nm NE 
261915Z AUTO 29012G23KT 10SM SCT070 SCT080 22/07 A3021 RMK AO2 T02190074
KRWF 
19nm SW 
261853Z AUTO 30015G26KT 10SM FEW060 23/07 A3022 RMK AO2 PK WND 31026/1848 SLP231 T02330067
KLJF 
24nm N 
261915Z AUTO 28013G22KT 10SM SCT055 SCT070 22/06 A3020 RMK AO2
KULM 
26nm S 
261915Z AUTO 31019G26KT 10SM CLR 22/04 A3021 RMK AO2
KGYL 
27nm E 
261915Z AUTO 27014G19KT 7SM SCT060 BKN075 22/07 A3019 RMK AO2 T02210074
TAF
KRWF 
19nm SW 
261724Z 2618/2718 30014G29KT P6SM BKN050 FM262000 32013G26KT P6SM SCT060 FM270100 31010KT P6SM FEW250 FM271100 25004KT P6SM SKC
NOTAMs
Click for the latest NOTAMs
NOTAMs are issued by the DoD/FAA and will open in a separate window not controlled by AirNav.

 

 
 

FBO, Fuel Providers, and Aircraft Ground Support

  
 Business Name 
 
 Contact 
 
 Services / Description 
 
Fuel Prices
 
Comments
  
Newberg Sky Spray 320-848-2745
no information available

If you are affiliated with Newberg Sky Spray and would like to show here your services, contact info, web link, logo, and more, click here
100LL
SS $5.09 
 Updated 17-Jun-2022
 
   1 read write
SS=Self service
Update Fuel Prices
 

Would you like to see your business listed on this page?

 If your business provides an interesting product or service to pilots, flight crews, aircraft, or users of the Hector Municipal Airport, you should consider listing it here.  To start the listing process, click on the button below
 
Add a business
 

Other Pages about Hector Municipal Airport

Update a link
 
Copyright © AirNav, LLC. All rights reserved. Privacy Policy  Contact